Skip Page Navigation
NASA JPL Caltech
NASA Logo - Jet Propulsion Laboratory + View the NASA Portal
+ Near-Earth Object (NEO) Program
Search JPL
JPL Home Earth Solar System Stars & Galaxies Technology
JPL Solar System Dynamics
BODIES ORBITS EPHEMERIDES TOOLS PHYSICAL DATA DISCOVERY FAQ SITE MAP
JPL Small-Body Database Browser
Search: [ help ]  
32856 (1992 SA25)
Classification: Main-belt Asteroid          SPK-ID: 2032856
Ephemeris | Orbit Diagram | Orbital Elements | Physical Parameters | Discovery Circumstances | Close-Approach Data ]

[ show orbit diagram ]
Orbital Elements at Epoch 2457000.5 (2014-Dec-09.0) TDB
Reference: JPL 11 (heliocentric ecliptic J2000)
 Element Value Uncertainty (1-sigma)   Units 
e .2760378269327506 8.1855e-08  
a 2.613207373435937 2.5478e-08 AU
q 1.89186328874804 2.2057e-07 AU
i 12.84494256236455 9.2454e-06 deg
node 195.5986074539188 2.7401e-05 deg
peri 170.5107248035492 3.0068e-05 deg
M 92.18286593183655 1.1992e-05 deg
tp 2456605.400077449804
(2013-Nov-08.90007745)
5.0177e-05 JED
period 1542.976242713535
4.22
2.2566e-05
6.178e-08
d
yr
n .2333153227083333 3.4122e-09 deg/d
Q 3.334551458123834 3.2511e-08 AU
  Orbit Determination Parameters
   # obs. used (total)      688  
   data-arc span      10177 days (27.86 yr)  
   first obs. used      1986-03-15  
   last obs. used      2014-01-24  
   planetary ephem.      DE431  
   SB-pert. ephem.      SB431-BIG16  
   condition code      0  
   fit RMS      .52309  
   data source      ORB  
   producer      Otto Matic  
   solution date      2014-Jun-10 03:13:52  

Additional Information
 Earth MOID = .892233 AU 
 T_jup = 3.319 
[ show covariance matrix ]

Ephemeris | Orbit Diagram | Orbital Elements | Physical Parameters | Discovery Circumstances | Close-Approach Data ]

Physical Parameter Table
Parameter Symbol Value Units Sigma Reference Notes
absolute magnitude H 13.8 mag n/a MPO279857  
rotation period rot_per 13.507 h n/a Asteroid Lightcurve DataBase (Rev. 2014-Mar-01) Published Reference List:
[Klinglesmith III, D.A.; Hanowell, J.; Risley, E.; Turk, J.; et al. (2014) Minor Planet Bul. 41, 82-84.]

32856 (1992 SA25)          Discovered 1992-Sep-30 by Holt, H. E. at Palomar (675)
Reference: 20020128/Numbers.arcLast Updated: 2004-04-19

[ show close-approach data ]
Alternate Designations
 1992 SA25 = 2000 LW11 
Ephemeris | Orbit Diagram | Orbital Elements | Physical Parameters | Discovery Circumstances | Close-Approach Data ]
ABOUT SSD CREDITS/AWARDS PRIVACY/COPYRIGHT GLOSSARY LINKS
FirstGov 2014-Sep-18 19:46 UT
(server date/time)  
NASA Home Page
Site Manager:   Donald K. Yeomans
Webmaster  Alan B. Chamberlin